Rbgn^[z[y[W
メイン
   新天体発見情報
     Comet C/2022 QE78 (ATLAS)
投稿するにはまず登録を

スレッド表示 | 古いものから 前のトピック | 次のトピック | 下へ
投稿者 スレッド
佐藤裕久
投稿日時: 2022-11-3 21:43
モデレータ
登録日: 2005-6-12
居住地: 日本
投稿: 2670
オンライン
Comet C/2022 QE78 (ATLAS)

8月27日UT、チリ Rio Hurtadoにある小惑星地球衝突最終警報システム Asteroid Terrestrial-
impact Last Alert System (ATLAS)調査プログラムのコースに0.5-m f/2 Schmidt反射望遠鏡で
得たCCD画像から小惑星状天体を発見され、小惑星符号 2022 QE78とつけられた。
R. Weryk (西オンタリオ大学,物理および天文学科)によると、9月7.6日UT、Haleakalaにある
Pan-STARRS1の1.8-m Ritchey-Chretien 反射望遠鏡で得た3枚の45秒w-バンドサーベイ画像ては、
1".2のシーイングで、1".75(半値全幅:FWHM)の集光した19.3等のコマが見え、p.a. 280°に2" の
尾がある。
佐藤英貴氏(東京都文京区)によると,10月20.30日、0.51-m f/6.8 アストログラフ (Rio Hurtado, 
チリ, 遠隔操作)で得た120-秒露出6枚のスタック画像では、強く集光した7"のコマが見えるが、
尾はなかった。3".6の円形範囲で測定した光度は16.9等であった。

彗星機能の報告は次のとおり、

OC   Date        Reporter           Coma    Tail    PA          Exposures
F51  2022-09-07  R. Weryk           0".5     2"     280         3x45s
F52  2022-09-24  R. Weryk           0".7     2"     280         4x45s
F52  2022-10-01  R. Weryk           0".6     2"     280         4x45s
F52  2022-10-15  R. Weryk           0".5     2"     280         4x45s
F51  2022-10-19  R. Weryk           0".6     2"     280         2x45s
F51  2022-10-20  R. Weryk           0".6     2"     280         4x45s

発見位置は次のとおり、

     2022 UT             R.A. (2000) Decl.       Mag.
     Aug. 27.32319    3 47 21.51   -18 12 43.0   19.4
          27.32598    3 47 21.57   -18 12 44.4   19.4
          27.33027    3 47 21.56   -18 12 44.6   19.0
          27.35358    3 47 21.67   -18 12 49.6   19.6

MPCの双曲線軌道要素、位置推算表は次のとおり、

Orbital elements:
    C/2022 QE78 (ATLAS)                                                         
Epoch 2022 Aug. 9.0 TT = JDT 2459800.5                                          
T 2025 Sept.  9.84316 TT                                Rudenko                 
q   5.4787896            (2000.0)            P               Q                  
z  -0.0006480      Peri.    0.39130     -0.50347621     -0.69285864             
 +/-0.0001194      Node   119.91619     +0.79108621     -0.60989400             
e   1.0035504      Incl.   36.55184     +0.34741087     +0.38467677             
From 101 observations 2022 Aug. 27-Oct. 22, mean residual 0".3.                 
                                                                                
Ephemeris:
Date    TT    R. A. (2000) Decl.     Delta      r    Elong.  Phase   m1
2022 09 24    03 47 44.8 -19 39 47   8.7328  9.2943   121.3     5.3  19.4
...
2022 10 09    03 45 40.5 -20 25 05   8.5341  9.2175   130.8     4.7  19.3
...
2022 10 17    03 43 58.6 -20 46 20   8.4459  9.1766   134.9     4.4  19.3
...
2022 10 23    03 42 28.2 -21 00 19   8.3889  9.1459   137.4     4.2  19.2
2022 10 24    03 42 12.0 -21 02 27   8.3802  9.1408   137.7     4.2  19.2
2022 10 25    03 41 55.6 -21 04 32   8.3718  9.1357   138.1     4.2  19.2
...
2022 10 31    03 40 11.8 -21 15 42   8.3259  9.1051   139.6     4.1  19.2
...
2022 11 08    03 37 41.8 -21 26 44   8.2781  9.0643   140.5     4.0  19.2
...
2022 11 23    03 32 42.4 -21 33 55   8.2304  8.9880   137.9     4.2  19.1

(MPEC 2022-U218、CBET 5182)

スレッド表示 | 古いものから 前のトピック | 次のトピック | トップ

投稿するにはまず登録を
 
© 1999 Tsutomu Seki.